Retour au catalogue

STARLINK-30318

ActifCommunicationsVLEO
NORAD 57711·PAYLOAD·🇺🇸 United States

Lancé Aug 27, 2023 depuis Cape Canaveral Space Force Station

Loading…

Prochains Passages (prochaines 24 heures)

TLE

FraisSource: CelesTrak SupGP

Époque: Sep 15, 2026, 03:10 UTC

1 57711C 23129P   26258.13243056  .00059518  00000+0  21546-2 0  2580
2 57711  43.0027 127.7350 0001486 270.1978 274.8640 15.27566071    19

Suivez STARLINK-30318 en temps réel avec AllMySat

Download on the App Store